GW4448 Weather Reports


time (UTC)temp
C
wind
direction
speed
KPH
gust
KPH
rain 1hr
cm
rain 24hr
cm
rain mn
cm
humidity
%
barometer
mb
20260507052541 11 0 0.0 3.2 0.00 0.00 0.00 93 1017.5
20260507052034 11 234 1.6 3.2 0.00 0.00 0.00 93 1017.4
20260507051545 11 234 0.0 3.2 0.00 0.00 0.00 92 1017.3
20260507051033 11 0 0.0 3.2 0.00 0.00 0.00 92 1017.4
20260507050537 11 0 0.0 3.2 0.00 0.00 0.00 92 1017.4
20260507050053 12 234 0.0 3.2 0.00 0.00 0.00 92 1017.4
20260507045535 12 0 0.0 3.2 0.00 0.00 0.00 92 1017.3
20260507045034 12 234 0.0 3.2 0.00 0.00 0.00 92 1017.3
20260507044550 12 0 0.0 3.2 0.00 0.00 0.00 91 1017.3
20260507044036 12 0 1.6 3.2 0.00 0.00 0.00 91 1017.3
20260507043533 12 234 0.0 3.2 0.00 0.00 0.00 91 1017.3
20260507043052 12 234 1.6 3.2 0.00 0.00 0.00 90 1017.2
20260507042534 12 234 1.6 3.2 0.00 0.00 0.00 90 1017.1
20260507042034 12 234 1.6 3.2 0.00 0.00 0.00 90 1017.1
20260507041552 12 0 0.0 3.2 0.00 0.00 0.00 89 1017.1
20260507041035 12 0 0.0 3.2 0.00 0.00 0.00 89 1017.1
20260507040534 12 234 1.6 3.2 0.00 0.00 0.00 88 1017.0
20260507040055 12 234 0.0 3.2 0.00 0.00 0.00 88 1017.0
20260507035534 12 0 0.0 3.2 0.00 0.00 0.00 87 1017.0
20260507035033 13 234 1.6 3.2 0.00 0.00 0.00 87 1016.9
20260507034545 13 234 0.0 3.2 0.00 0.00 0.00 86 1016.8
20260507034032 13 234 1.6 3.2 0.00 0.00 0.00 85 1016.6
20260507033538 13 0 0.0 4.8 0.00 0.00 0.00 84 1016.6
20260507033045 13 234 1.6 4.8 0.00 0.00 0.00 83 1016.5
20260507032533 13 234 1.6 3.2 0.00 0.00 0.00 82 1016.5
20260507032034 14 234 0.0 3.2 0.00 0.00 0.00 82 1016.5
20260507031543 14 234 0.0 3.2 0.00 0.00 0.00 81 1016.3
20260507031033 15 0 0.0 0.0 0.00 0.00 0.00 80 1016.4
20260507030534 15 0 0.0 0.0 0.00 0.00 0.00 80 1016.2
20260507030044 15 0 0.0 0.0 0.00 0.00 0.00 80 1016.1
20260507025535 15 0 0.0 4.8 0.00 0.00 0.00 80 1016.1
20260507025035 15 0 0.0 6.4 0.00 0.00 0.00 79 1016.0
20260507024545 16 234 0.0 6.4 0.00 0.00 0.00 79 1016.1
20260507024034 16 0 1.6 6.4 0.00 0.00 0.00 78 1016.1
20260507023535 16 219 0.0 8.0 0.00 0.00 0.00 78 1016.0
20260507023049 16 0 1.6 9.7 0.00 0.00 0.00 77 1016.0
20260507022535 16 320 1.6 9.7 0.00 0.00 0.00 77 1016.0
20260507022035 17 226 4.8 9.7 0.00 0.00 0.00 77 1015.9
20260507021552 17 0 3.2 12.9 0.00 0.00 0.00 77 1015.9
20260507021035 17 236 4.8 12.9 0.00 0.00 0.00 76 1015.9
20260507020536 17 180 3.2 12.9 0.00 0.00 0.00 76 1015.8
20260507020045 17 211 4.8 12.9 0.00 0.00 0.00 75 1015.8
20260507015537 17 209 4.8 11.3 0.00 0.00 0.00 74 1015.9
20260507015035 18 0 3.2 11.3 0.00 0.00 0.00 73 1015.7
20260507014554 18 221 4.8 11.3 0.00 0.00 0.00 72 1015.8
20260507014035 18 229 4.8 12.9 0.00 0.00 0.00 71 1015.7
20260507013534 18 207 3.2 14.5 0.00 0.00 0.00 70 1015.8
20260507013103 18 155 4.8 16.1 0.00 0.00 0.00 69 1015.8
20260507012535 18 223 8.0 16.1 0.00 0.00 0.00 69 1015.7
20260507012035 18 203 6.4 16.1 0.00 0.00 0.00 68 1015.7
20260507011545 19 191 4.8 16.1 0.00 0.00 0.00 68 1015.7
20260507011034 19 225 6.4 16.1 0.00 0.00 0.00 67 1015.6
20260507010534 19 201 6.4 17.7 0.00 0.00 0.00 68 1015.8
20260507010042 19 234 8.0 17.7 0.00 0.00 0.00 67 1015.8
20260507005535 19 207 6.4 17.7 0.00 0.00 0.00 67 1016.0
20260507005036 19 219 9.7 17.7 0.00 0.00 0.00 67 1015.9
20260507004542 20 200 6.4 22.5 0.00 0.00 0.00 66 1015.9
20260507004035 20 219 9.7 22.5 0.00 0.00 0.00 66 1015.9
20260507003535 20 230 6.4 20.9 0.00 0.00 0.00 65 1015.9
20260507003044 20 201 9.7 20.9 0.00 0.00 0.00 65 1015.9
20260507002534 20 234 9.7 20.9 0.00 0.00 0.00 62 1015.8
20260507002036 20 225 8.0 20.9 0.00 0.00 0.00 63 1015.9
20260507001601 20 163 9.7 20.9 0.00 0.00 0.00 63 1015.9
20260507001035 20 239 6.4 19.3 0.00 0.00 0.00 62 1015.8
20260507000535 20 265 6.4 24.1 0.00 0.00 0.00 62 1015.8
20260507000044 20 233 9.7 24.1 0.00 0.00 0.00 61 1015.9
20260506235537 20 194 6.4 22.5 0.00 0.00 0.00 61 1015.8
20260506235032 21 227 6.4 22.5 0.00 0.00 0.00 61 1015.9
20260506234548 21 213 9.7 25.7 0.00 0.00 0.00 61 1015.8
20260506234038 21 252 9.7 25.7 0.00 0.00 0.00 62 1015.9
20260506233537 21 236 11.3 25.7 0.00 0.00 0.00 61 1015.8
20260506233047 21 52 8.0 20.9 0.00 0.00 0.00 61 1015.8
20260506232533 21 267 9.7 25.7 0.00 0.00 0.00 63 1015.8
20260506232035 20 211 11.3 25.7 0.00 0.00 0.00 63 1015.9
20260506231548 20 221 11.3 24.1 0.00 0.00 0.00 63 1015.9
20260506231035 20 252 9.7 24.1 0.00 0.00 0.00 64 1015.9
20260506230536 20 236 11.3 24.1 0.00 0.00 0.00 62 1015.9
20260506230044 21 246 9.7 20.9 0.00 0.00 0.00 62 1015.9
20260506225535 21 224 8.0 27.4 0.00 0.00 0.00 63 1016.1
20260506225035 21 242 6.4 27.4 0.00 0.00 0.00 63 1016.1
20260506224549 21 240 9.7 27.4 0.00 0.00 0.00 63 1016.2
20260506224037 21 229 6.4 27.4 0.00 0.00 0.00 65 1016.3
20260506223535 20 259 9.7 27.4 0.00 0.00 0.00 64 1016.2
20260506223100 20 249 9.7 25.7 0.00 0.00 0.00 65 1016.3
20260506222535 20 243 12.9 25.7 0.00 0.00 0.00 64 1016.4
20260506222036 21 235 8.0 25.7 0.00 0.00 0.00 64 1016.5
20260506221543 21 221 11.3 25.7 0.00 0.00 0.00 64 1016.7
20260506221035 21 190 11.3 25.7 0.00 0.00 0.00 63 1016.6
20260506220535 21 217 9.7 25.7 0.00 0.00 0.00 63 1016.8
20260506220049 21 228 8.0 22.5 0.00 0.00 0.00 63 1016.9
20260506215535 21 269 11.3 24.1 0.00 0.00 0.00 62 1016.9
20260506215034 21 213 11.3 24.1 0.00 0.00 0.00 64 1017.0
20260506214543 21 240 9.7 24.1 0.00 0.00 0.00 63 1017.1
20260506214037 21 256 8.0 19.3 0.00 0.00 0.00 64 1017.1
20260506213538 21 218 9.7 19.3 0.00 0.00 0.00 64 1017.2
20260506213044 20 221 8.0 19.3 0.00 0.00 0.00 65 1017.3
20260506212535 20 307 8.0 19.3 0.00 0.00 0.00 64 1017.3
20260506212036 21 267 6.4 22.5 0.00 0.00 0.00 62 1017.3
20260506211549 21 286 8.0 22.5 0.00 0.00 0.00 62 1017.3
20260506211036 21 250 9.7 22.5 0.00 0.00 0.00 63 1017.3
20260506210534 21 286 8.0 22.5 0.00 0.00 0.00 63 1017.4
20260506210050 21 269 8.0 20.9 0.00 0.00 0.00 64 1017.4
20260506205534 21 219 8.0 20.9 0.00 0.00 0.00 63 1017.5
20260506205035 21 284 6.4 17.7 0.00 0.00 0.00 62 1017.4
20260506204548 21 227 8.0 17.7 0.00 0.00 0.00 63 1017.5
20260506204034 21 260 8.0 17.7 0.00 0.00 0.00 63 1017.5
20260506203535 21 215 4.8 19.3 0.00 0.00 0.00 62 1017.6
20260506203047 21 267 6.4 19.3 0.00 0.00 0.00 62 1017.5
20260506202535 21 240 9.7 19.3 0.00 0.00 0.00 63 1017.6
20260506202035 21 236 6.4 20.9 0.00 0.00 0.00 64 1017.7
20260506201553 20 258 6.4 20.9 0.00 0.00 0.00 65 1017.7
20260506201040 20 252 6.4 19.3 0.00 0.00 0.00 64 1017.7
20260506200534 21 267 8.0 17.7 0.00 0.00 0.00 63 1017.8
20260506200120 20 235 8.0 17.7 0.00 0.00 0.00 67 1017.8
20260506195535 20 212 6.4 17.7 0.00 0.00 0.00 67 1017.8
20260506195035 20 246 8.0 19.3 0.00 0.00 0.00 68 1017.8
20260506194544 20 263 8.0 19.3 0.00 0.00 0.00 67 1017.9
20260506194035 20 261 8.0 19.3 0.00 0.00 0.00 68 1018.0
20260506193538 20 262 8.0 19.3 0.00 0.00 0.00 68 1017.9
20260506193102 20 262 8.0 19.3 0.00 0.00 0.00 66 1018.0
20260506192534 20 211 6.4 20.9 0.00 0.00 0.00 68 1017.9
20260506192037 20 247 9.7 20.9 0.00 0.00 0.00 67 1017.9
20260506191554 20 240 8.0 20.9 0.00 0.00 0.00 70 1018.1
20260506191035 19 236 4.8 17.7 0.00 0.00 0.00 70 1018.0
20260506190535 20 232 8.0 17.7 0.00 0.00 0.00 68 1018.0
20260506190050 20 290 8.0 20.9 0.00 0.00 0.00 68 1018.0
20260506185541 20 221 6.4 20.9 0.00 0.00 0.00 69 1018.0
20260506185044 20 187 6.4 20.9 0.00 0.00 0.00 68 1018.0
20260506184553 20 243 6.4 16.1 0.00 0.00 0.00 69 1018.3
20260506184036 20 255 6.4 17.7 0.00 0.00 0.00 68 1018.3
20260506183535 20 257 6.4 17.7 0.00 0.00 0.00 69 1018.3
20260506183045 20 237 6.4 19.3 0.00 0.00 0.00 69 1018.3
20260506182534 20 250 4.8 22.5 0.00 0.00 0.00 70 1018.2
20260506182034 20 165 8.0 22.5 0.00 0.00 0.00 70 1018.3
20260506181544 20 220 8.0 19.3 0.00 0.00 0.00 68 1018.3
20260506181035 20 258 4.8 16.1 0.00 0.00 0.00 68 1018.2
20260506180535 20 213 8.0 20.9 0.00 0.00 0.00 68 1018.3
20260506180050 20 211 6.4 20.9 0.00 0.00 0.00 66 1018.2
20260506175535 20 202 4.8 17.7 0.00 0.00 0.00 66 1018.3
20260506175035 20 184 4.8 14.5 0.00 0.00 0.00 67 1018.3
20260506174552 20 225 3.2 14.5 0.00 0.00 0.00 68 1018.3
20260506174037 20 211 3.2 11.3 0.00 0.00 0.00 68 1018.3
20260506173538 19 250 3.2 11.3 0.00 0.00 0.00 67 1018.3
20260506173041 19 246 4.8 12.9 0.00 0.00 0.00 67 1018.3
20260506172534 19 182 4.8 12.9 0.00 0.00 0.00 68 1018.2
20260506172034 18 244 1.6 11.3 0.00 0.00 0.00 68 1018.2
20260506171552 18 266 4.8 12.9 0.00 0.00 0.00 68 1018.3
20260506171035 18 227 4.8 12.9 0.00 0.00 0.00 67 1018.2
20260506170535 18 225 4.8 16.1 0.00 0.00 0.00 66 1018.2
20260506170047 19 258 4.8 16.1 0.00 0.00 0.00 67 1018.2
20260506165536 18 232 4.8 14.5 0.00 0.00 0.00 67 1018.2
20260506165035 19 230 4.8 12.9 0.00 0.00 0.00 66 1018.1
20260506164543 18 215 1.6 12.9 0.00 0.00 0.00 66 1018.2
20260506164035 18 238 4.8 11.3 0.00 0.00 0.00 65 1018.3
20260506163535 18 284 1.6 12.9 0.00 0.00 0.00 67 1018.3
20260506163048 18 142 3.2 12.9 0.00 0.00 0.00 66 1018.3
20260506162534 18 179 3.2 9.7 0.00 0.00 0.00 66 1018.3
20260506162036 18 126 1.6 9.7 0.00 0.00 0.00 67 1018.3
20260506161553 18 144 1.6 9.7 0.00 0.00 0.00 66 1018.2
20260506161034 17 0 3.2 9.7 0.00 0.00 0.00 68 1018.4
20260506160538 17 0 1.6 6.4 0.00 0.00 0.00 68 1018.4
20260506160040 17 352 1.6 9.7 0.00 0.00 0.00 67 1018.4
20260506155534 17 79 3.2 9.7 0.00 0.00 0.00 68 1018.3
20260506155034 17 44 1.6 6.4 0.00 0.00 0.00 67 1018.3
20260506154538 17 58 0.0 6.4 0.00 0.00 0.00 69 1018.3
20260506154035 16 55 3.2 8.0 0.00 0.00 0.00 68 1018.3
20260506153535 16 53 1.6 14.5 0.00 0.00 0.00 69 1018.4
20260506153045 16 103 3.2 14.5 0.00 0.00 0.00 70 1018.4
20260506152534 16 39 4.8 14.5 0.00 0.00 0.00 70 1018.4
20260506152034 16 98 4.8 11.3 0.00 0.00 0.00 71 1018.3
20260506151543 15 51 3.2 17.7 0.00 0.00 0.00 73 1018.3
20260506151034 15 76 8.0 17.7 0.00 0.00 0.00 74 1018.3
20260506150534 15 47 6.4 14.5 0.00 0.00 0.00 75 1018.3
20260506150043 15 49 4.8 16.1 0.00 0.00 0.00 76 1018.3
20260506145534 14 96 8.0 16.1 0.00 0.00 0.00 76 1018.2
20260506145034 14 42 3.2 16.1 0.00 0.00 0.00 78 1018.2
20260506144540 13 92 6.4 12.9 0.00 0.00 0.00 78 1018.1
20260506144034 13 46 3.2 17.7 0.00 0.00 0.00 79 1018.1
20260506143535 13 67 6.4 17.7 0.00 0.00 0.00 80 1018.2
20260506143044 13 35 8.0 17.7 0.00 0.00 0.00 81 1018.1
20260506142535 12 64 6.4 16.1 0.00 0.00 0.00 82 1018.1
20260506142033 12 23 0.0 14.5 0.00 0.00 0.00 84 1018.0
20260506141545 12 0 3.2 17.7 0.00 0.00 0.00 84 1018.1
20260506141036 12 34 6.4 17.7 0.00 0.00 0.00 84 1018.0
20260506140535 11 79 3.2 9.7 0.00 0.00 0.00 85 1018.0
20260506140047 11 0 1.6 8.0 0.00 0.00 0.00 86 1018.0
20260506135535 11 0 0.0 8.0 0.00 0.00 0.00 86 1017.9
20260506135034 11 63 3.2 8.0 0.00 0.00 0.00 86 1017.9
20260506134610 11 97 0.0 8.0 0.00 0.00 0.00 86 1017.8
20260506134048 11 0 1.6 8.0 0.00 0.00 0.00 86 1017.9
20260506133537 11 40 0.0 14.5 0.00 0.00 0.00 86 1017.8
20260506133048 11 0 1.6 14.5 0.00 0.00 0.00 87 1017.7
20260506132537 11 30 4.8 14.5 0.00 0.00 0.00 87 1017.7
20260506132037 11 46 1.6 16.1 0.00 0.00 0.00 87 1017.7
20260506131604 11 81 3.2 16.1 0.00 0.00 0.00 88 1017.7
20260506131035 11 31 1.6 6.4 0.00 0.00 0.00 87 1017.7
20260506130535 11 0 0.0 6.4 0.00 0.00 0.00 88 1017.7
20260506130044 11 22 0.0 6.4 0.00 0.00 0.00 88 1017.6
20260506125533 11 0 0.0 14.5 0.00 0.00 0.00 88 1017.6
20260506125034 11 22 1.6 14.5 0.00 0.00 0.00 89 1017.6
20260506124543 11 57 1.6 6.4 0.00 0.00 0.00 89 1017.5
20260506124034 11 349 0.0 4.8 0.00 0.00 0.00 89 1017.5
20260506123537 11 5 0.0 4.8 0.00 0.00 0.00 89 1017.4
20260506123045 11 0 0.0 4.8 0.00 0.00 0.00 89 1017.4
20260506122535 11 0 0.0 6.4 0.00 0.00 0.00 89 1017.3
20260506122039 11 0 1.6 8.0 0.00 0.00 0.00 89 1017.2
20260506121539 11 17 1.6 8.0 0.00 0.00 0.00 89 1017.1
20260506121037 11 0 1.6 9.7 0.00 0.00 0.00 90 1017.1
20260506120535 11 17 1.6 9.7 0.00 0.00 0.00 90 1017.0
20260506120044 11 336 1.6 8.0 0.00 0.00 0.00 91 1017.1
20260506115536 11 0 1.6 8.0 0.00 0.00 0.00 91 1017.1
20260506115036 11 46 1.6 8.0 0.00 0.00 0.00 91 1017.0
20260506114549 11 46 1.6 8.0 0.00 0.00 0.00 92 1017.0
20260506114034 10 43 0.0 9.7 0.00 0.00 0.00 93 1017.1
20260506113536 10 17 3.2 9.7 0.00 0.00 0.00 93 1017.0
20260506113044 10 355 1.6 9.7 0.00 0.00 0.00 93 1017.0
20260506112535 10 13 0.0 6.4 0.00 0.00 0.00 93 1017.0
20260506112037 10 0 0.0 6.4 0.00 0.00 0.00 93 1017.1
20260506111547 10 24 0.0 6.4 0.00 0.00 0.00 93 1017.0
20260506111034 10 0 0.0 6.4 0.00 0.00 0.00 93 1017.0
20260506110534 10 27 0.0 6.4 0.00 0.00 0.00 94 1017.1
20260506110051 10 0 0.0 6.4 0.00 0.00 0.00 94 1017.1
20260506105534 10 350 1.6 3.2 0.00 0.00 0.00 94 1017.1
20260506105036 10 343 0.0 3.2 0.00 0.00 0.00 93 1017.0
20260506104545 10 0 0.0 3.2 0.00 0.00 0.00 93 1017.0
20260506104034 10 343 0.0 3.2 0.00 0.00 0.00 93 1017.0
20260506103533 10 0 0.0 3.2 0.00 0.00 0.00 92 1016.9
20260506103047 10 0 0.0 3.2 0.00 0.00 0.00 92 1016.9
20260506102534 10 343 0.0 3.2 0.00 0.00 0.00 92 1016.8
20260506102037 10 0 0.0 1.6 0.00 0.00 0.00 91 1016.8
20260506101544 11 0 0.0 1.6 0.00 0.00 0.00 92 1016.8
20260506101034 11 0 0.0 1.6 0.00 0.00 0.00 92 1016.8
20260506100534 11 0 0.0 3.2 0.00 0.00 0.00 92 1016.9
20260506100044 11 0 0.0 3.2 0.00 0.00 0.00 92 1017.0
20260506095534 11 0 0.0 3.2 0.00 0.00 0.00 92 1016.9
20260506095037 11 0 0.0 3.2 0.00 0.00 0.00 92 1017.0
20260506094541 11 343 0.0 3.2 0.00 0.00 0.00 92 1017.0
20260506094039 11 0 0.0 3.2 0.00 0.00 0.00 92 1017.0
20260506093534 11 342 0.0 4.8 0.00 0.00 0.00 92 1017.1
20260506093051 11 332 1.6 4.8 0.00 0.00 0.00 92 1017.2
20260506092534 11 344 0.0 4.8 0.00 0.00 0.00 92 1017.1
20260506092034 11 333 0.0 6.4 0.00 0.00 0.00 93 1017.2
20260506091544 11 0 0.0 6.4 0.00 0.00 0.00 93 1017.3
20260506091034 11 341 1.6 6.4 0.00 0.00 0.00 93 1017.3
20260506090534 11 345 1.6 6.4 0.00 0.00 0.00 93 1017.2
20260506090045 11 336 0.0 6.4 0.00 0.00 0.00 93 1017.3
20260506085534 11 342 0.0 6.4 0.00 0.00 0.00 93 1017.3
20260506085035 11 342 1.6 6.4 0.00 0.00 0.00 93 1017.2
20260506084545 11 0 0.0 6.4 0.00 0.00 0.00 93 1017.3
20260506084036 11 0 1.6 6.4 0.00 0.00 0.00 93 1017.5
20260506083535 11 0 1.6 4.8 0.00 0.00 0.00 93 1017.4
20260506083042 11 0 0.0 3.2 0.00 0.00 0.00 93 1017.4
20260506082536 11 335 0.0 4.8 0.00 0.00 0.00 92 1017.4
20260506082035 11 0 0.0 4.8 0.00 0.00 0.00 92 1017.4
20260506081549 11 0 1.6 6.4 0.00 0.00 0.00 93 1017.4
20260506081034 11 0 0.0 6.4 0.00 0.00 0.00 93 1017.5
20260506080534 11 0 1.6 6.4 0.00 0.00 0.00 93 1017.5
20260506073043 11 0 0.0 3.2 0.00 0.00 0.00 94 1017.3
20260506072534 11 89 0.0 3.2 0.00 0.00 0.00 94 1017.2
20260506072034 11 0 0.0 3.2 0.00 0.00 0.00 94 1017.3
20260506071545 11 0 0.0 4.8 0.00 0.00 0.00 93 1017.1
20260506071038 11 0 0.0 4.8 0.00 0.00 0.00 93 1017.2
20260506070536 11 89 0.0 4.8 0.00 0.00 0.00 93 1017.2
20260506062034 10 89 0.0 3.2 0.00 0.00 0.00 95 1016.5
20260506061544 10 0 0.0 1.6 0.00 0.00 0.00 94 1016.6
20260506061035 10 0 0.0 1.6 0.00 0.00 0.00 93 1016.6
20260506060536 10 0 0.0 3.2 0.00 0.00 0.00 93 1016.5